FW9451 Weather Reports


time (UTC)temp
F
wind
direction
speed
knots
gust
knots
rain 1hr
in
rain 24hr
in
rain mn
in
humidity
%
barometer
mb
20260508060100 42 345 0.0 2.6 0.00 0.00 0.00 56 1007.9
20260508054636 43 0 1.7 4.3 0.00 0.00 0.00 54 1007.9
20260508053052 43 355 1.7 5.2 0.00 0.00 0.00 54 1008.2
20260508051548 43 351 0.9 6.1 0.00 0.00 0.00 54 1008.1
20260508050050 43 341 2.6 7.0 0.00 0.00 0.00 53 1008.2
20260508044547 44 282 1.7 7.0 0.00 0.11 0.00 54 1008.1
20260508043052 44 351 1.7 7.0 0.00 0.11 0.00 55 1008.2
20260508041545 44 290 0.9 5.2 0.00 0.11 0.00 53 1008.5
20260508040051 45 315 0.9 4.3 0.00 0.11 0.00 53 1008.5
20260508034553 46 260 1.7 3.5 0.00 0.12 0.11 50 1008.4
20260508033049 46 255 1.7 5.2 0.00 0.12 0.11 50 1008.4
20260508031556 46 336 1.7 4.3 0.00 0.12 0.11 48 1008.3
20260508030104 47 349 1.7 7.8 0.00 0.12 0.11 49 1008.3
20260508024607 47 347 1.7 4.3 0.00 0.12 0.11 49 1008.3
20260508023054 48 11 0.9 7.0 0.00 0.12 0.11 46 1008.2
20260508021551 48 343 0.9 9.6 0.00 0.12 0.11 46 1008.0
20260508020104 48 340 1.7 6.1 0.00 0.12 0.11 46 1007.9
20260508014602 49 29 3.5 8.7 0.00 0.13 0.11 44 1007.8
20260508013059 50 38 5.2 11.3 0.00 0.13 0.11 43 1007.7
20260508011552 50 311 3.5 10.4 0.00 0.13 0.11 43 1007.4
20260508010106 51 329 2.6 7.8 0.00 0.13 0.11 42 1007.3
20260508004557 51 338 2.6 8.7 0.00 0.13 0.11 41 1007.0
20260508003053 52 313 1.7 5.2 0.00 0.13 0.11 40 1006.8
20260508001547 53 331 1.7 7.8 0.00 0.13 0.11 39 1006.5
20260508000051 53 321 3.5 8.7 0.00 0.13 0.11 37 1006.4
20260507234550 54 55 2.6 7.8 0.00 0.13 0.11 35 1006.3
20260507233052 55 295 2.6 11.3 0.00 0.13 0.11 34 1006.1
20260507231549 56 275 4.3 12.2 0.00 0.13 0.11 34 1006.0
20260507230047 57 349 4.3 11.3 0.00 0.13 0.11 34 1005.7
20260507224547 56 267 1.7 9.6 0.00 0.13 0.11 36 1005.5
20260507223046 57 327 2.6 10.4 0.00 0.13 0.11 35 1005.3
20260507221548 58 256 7.8 14.8 0.00 0.13 0.11 33 1005.2
20260507220049 59 287 4.3 9.6 0.00 0.13 0.11 32 1005.1
20260507214550 59 277 5.2 14.8 0.00 0.15 0.11 33 1005.2
20260507213051 59 300 7.0 18.2 0.00 0.15 0.11 33 1005.1
20260507211554 59 243 4.3 13.0 0.00 0.15 0.11 34 1005.0
20260507210049 59 274 5.2 13.0 0.00 0.15 0.11 33 1004.9
20260507204548 59 259 7.8 15.6 0.00 0.24 0.11 33 1004.9
20260507203047 59 252 6.1 14.8 0.00 0.24 0.11 33 1004.9
20260507201545 59 244 6.1 13.9 0.00 0.24 0.11 35 1004.9
20260507200051 59 279 4.3 14.8 0.00 0.24 0.11 35 1005.0
20260507194549 59 301 3.5 14.8 0.00 0.34 0.11 34 1005.0
20260507193049 57 273 6.1 17.4 0.00 0.34 0.11 37 1005.0
20260507191553 59 306 8.7 17.4 0.00 0.34 0.11 34 1005.1
20260507190052 59 286 8.7 22.6 0.00 0.34 0.11 35 1005.2
20260507184548 58 275 7.0 18.2 0.00 0.43 0.11 36 1005.3
20260507183049 58 103 7.0 14.8 0.00 0.43 0.11 44 1005.3
20260507181552 59 232 7.8 16.5 0.00 0.43 0.11 42 1005.4
20260507180057 58 306 7.8 18.2 0.00 0.43 0.11 49 1005.4
20260507174604 57 241 9.6 18.2 0.00 0.43 0.11 51 1005.5
20260507173100 58 304 9.6 18.2 0.00 0.43 0.11 48 1005.4
20260507171610 58 235 7.0 16.5 0.00 0.43 0.11 51 1005.3
20260507170054 56 257 7.0 15.6 0.00 0.43 0.11 55 1005.6
20260507164552 56 225 6.1 11.3 0.00 0.43 0.11 54 1005.6
20260507163054 56 240 5.2 11.3 0.00 0.43 0.11 55 1005.6
20260507161550 56 258 4.3 10.4 0.00 0.43 0.11 53 1005.9
20260507160058 57 349 4.3 11.3 0.00 0.43 0.11 53 1006.2
20260507154554 56 189 7.8 14.8 0.00 0.43 0.11 53 1006.5
20260507153101 57 273 4.3 13.9 0.00 0.43 0.11 56 1006.5
20260507151551 56 204 7.0 11.3 0.00 0.43 0.11 54 1006.6
20260507150050 55 245 3.5 9.6 0.00 0.43 0.11 59 1006.6
20260507144553 55 310 2.6 11.3 0.00 0.43 0.11 62 1006.7
20260507143052 55 290 1.7 7.8 0.00 0.43 0.11 65 1006.8
20260507141551 53 267 4.3 11.3 0.00 0.43 0.11 67 1007.1
20260507134550 52 285 4.3 11.3 0.00 0.43 0.11 70 1007.2
20260507133055 51 309 7.8 13.0 0.00 0.43 0.11 68 1007.4
20260507131550 51 264 2.6 7.0 0.00 0.43 0.11 72 1007.4
20260507130104 51 278 3.5 9.6 0.00 0.43 0.11 73 1007.4
20260507124632 50 267 2.6 7.0 0.00 0.43 0.11 72 1007.3
20260507123050 49 335 2.6 7.8 0.00 0.43 0.11 73 1007.5
20260507121549 49 347 4.3 8.7 0.00 0.43 0.11 74 1007.4
20260507120053 48 305 0.9 5.2 0.00 0.43 0.11 81 1007.5
20260507114608 47 216 1.7 7.0 0.00 0.43 0.11 83 1007.5
20260507113057 45 327 2.6 7.8 0.00 0.43 0.11 85 1007.4
20260507111555 45 294 1.7 5.2 0.00 0.43 0.11 87 1007.6
20260507110051 44 273 2.6 7.0 0.00 0.43 0.11 86 1007.8
20260507104557 45 279 0.9 3.5 0.00 0.43 0.11 85 1007.8
20260507103054 45 292 0.0 2.6 0.00 0.43 0.11 85 1007.7
20260507101558 45 295 0.9 4.3 0.00 0.43 0.11 86 1007.5
20260507100056 44 342 0.9 6.1 0.00 0.43 0.11 88 1007.4
20260507094549 44 299 1.7 4.3 0.00 0.43 0.11 89 1007.4
20260507093056 44 269 0.9 4.3 0.00 0.43 0.11 88 1007.1
20260507091552 45 0 0.9 4.3 0.00 0.43 0.11 88 1006.8
20260507090103 45 352 0.9 3.5 0.00 0.43 0.11 89 1007.2
20260507084549 45 0 0.9 4.3 0.00 0.43 0.11 89 1007.0
20260507083048 45 0 1.7 7.0 0.00 0.43 0.11 89 1007.2
20260507081550 46 340 1.7 6.1 0.00 0.43 0.11 89 1006.7
20260507080054 46 348 1.7 7.8 0.00 0.43 0.11 90 1007.0
20260507074610 46 338 1.7 9.6 0.00 0.43 0.11 90 1006.6
20260507073052 47 329 3.5 8.7 0.00 0.43 0.11 92 1006.7
20260507071554 47 0 4.3 11.3 0.00 0.43 0.11 93 1006.6
20260507070107 47 9 2.6 7.0 0.00 0.43 0.11 94 1006.3
20260507064554 47 313 0.9 5.2 0.00 0.43 0.11 94 1006.2
20260507063059 47 33 2.6 7.0 0.00 0.43 0.11 94 1005.9
20260507061550 48 352 1.7 5.2 0.00 0.43 0.11 94 1006.0